Weather History for KEYW - February, 2015

Change the Weather History Date:

Thursday, February 12, 2015

  Actual Average Record
Temperature  
Mean Temperature 64 °F 71 °F  
Max Temperature 71 °F 76 °F 85 °F (1982)
Min Temperature 57 °F 66 °F 51 °F (1973)
Degree Days  
Heating Degree Days 1 1  
Month to date heating degree days 1 12  
Since 1 July heating degree days 7 63  
Cooling Degree Days 0 6  
Month to date cooling degree days 51 72  
Year to date cooling degree days 282 237  
Growing Degree Days 14 (Base 50)    
Moisture  
Dew Point 57 °F    
Average Humidity 80    
Maximum Humidity 93    
Minimum Humidity 66    
Precipitation  
Precipitation 0.00 in 0.05 in 1.05 in (1937)
Month to date precipitation 1.00 0.61  
Year to date precipitation 2.03 2.65  
Snow  
Snow 0.00 in - - ()
Month to date snowfall 0.0  
Since 1 July snowfall 0.0  
Snow Depth 0.00 in    
Sea Level Pressure  
Sea Level Pressure 30.08 in    
Wind  
Wind Speed 9 mph (North)    
Max Wind Speed 16 mph    
Max Gust Speed 20 mph    
Visibility 10 miles    
Events      
T = Trace of Precipitation, MM = Missing Value Source: NWS Daily Summary

Daily Weather History Graph

Daily Weather History Graph

Search for Another Location

Airport or City:

Trip Planner

Search our weather history database for the weather conditions in past years. The results will help you decide how hot, cold, wet, or windy it might be!

Date:

Astronomy

Feb. 12, 2015 Rise Set
Actual Time 7:03 AM EST 6:19 PM EST
Civil Twilight 6:39 AM EST 6:43 PM EST
Nautical Twilight 6:12 AM EST 7:09 PM EST
Astronomical Twilight 5:46 AM EST 7:36 PM EST
Moon 12:59 AM EST (2/12) 12:21 PM EST (2/12)
Length of Visible Light 12h 03m
Length of Day
11h 16m
Last Quarter, 44% of the Moon is Illuminated
Feb 12
Last Quarter
Feb 18
New
Feb 25
First Quarter
Mar 5
Full
Mar 13
Last Quarter

Hourly Weather History & Observations

Time (EST) Temp. Dew Point Humidity Pressure Visibility Wind Dir Wind Speed Gust Speed Precip Events Conditions
12:53 AM 63.0 °F 55.9 °F 78% 30.05 in 10.0 mi North 8.1 mph - N/A   Clear
1:53 AM 62.1 °F 55.9 °F 80% 30.05 in 10.0 mi North 6.9 mph - N/A   Clear
2:53 AM 62.1 °F 55.9 °F 80% 30.04 in 10.0 mi NNE 5.8 mph - N/A   Clear
3:53 AM 60.8 °F 55.4 °F 82% 30.03 in 10.0 mi NNE 6.9 mph - N/A   Clear
4:53 AM 61.0 °F 57.0 °F 87% 30.02 in 10.0 mi NNE 6.9 mph - N/A   Clear
5:53 AM 59.0 °F 55.9 °F 90% 30.04 in 10.0 mi Calm Calm - N/A   Clear
6:53 AM 57.0 °F 55.9 °F 96% 30.08 in 10.0 mi Calm Calm - N/A   Clear
7:53 AM 61.0 °F 57.9 °F 90% 30.10 in 10.0 mi North 3.5 mph - N/A   Partly Cloudy
8:53 AM 66.0 °F 57.9 °F 75% 30.10 in 10.0 mi North 9.2 mph - N/A   Clear
9:53 AM 68.0 °F 57.9 °F 70% 30.12 in 10.0 mi North 10.4 mph - N/A   Clear
10:53 AM 69.1 °F 57.0 °F 65% 30.13 in 10.0 mi North 11.5 mph - N/A   Clear
11:53 AM 69.1 °F 57.9 °F 68% 30.13 in 10.0 mi North 11.5 mph - N/A   Clear
12:53 PM 70.0 °F 57.0 °F 63% 30.11 in 10.0 mi North 11.5 mph - N/A   Clear
1:53 PM 70.0 °F 57.9 °F 65% 30.09 in 10.0 mi NNW 10.4 mph - N/A   Clear
2:53 PM 70.0 °F 57.0 °F 63% 30.06 in 10.0 mi North 11.5 mph - N/A   Clear
3:53 PM 70.0 °F 57.0 °F 63% 30.06 in 10.0 mi NNW 9.2 mph - N/A   Clear
4:53 PM 68.0 °F 57.9 °F 70% 30.07 in 10.0 mi North 12.7 mph - N/A   Clear
5:53 PM 66.0 °F 57.0 °F 73% 30.07 in 10.0 mi NNW 15.0 mph - N/A   Clear
6:53 PM 64.9 °F 57.0 °F 75% 30.10 in 10.0 mi NNW 11.5 mph - N/A   Clear
7:53 PM 64.9 °F 57.0 °F 75% 30.11 in 10.0 mi NNW 9.2 mph - N/A   Partly Cloudy
8:53 PM 64.0 °F 55.0 °F 73% 30.12 in 10.0 mi NNW 9.2 mph - N/A   Clear
9:53 PM 64.4 °F 55.4 °F 73% 30.12 in 10.0 mi North 8.1 mph - N/A   Partly Cloudy
10:53 PM 63.0 °F 55.9 °F 78% 30.12 in 10.0 mi North 8.1 mph - N/A   Clear
11:53 PM 63.0 °F 55.9 °F 78% 30.11 in 10.0 mi NNW 6.9 mph - N/A   Clear